This demonstration page uses our WeatherBlox Daily Observations layout. Learn more.

Left ArrowRight Arrow

39.08367, -84.50855

Hourly Observations for April 30, 2017

Temp ( °F °C ) Dew Point ( °F °C ) Humidity (%) Winds ( mph kmh ) Pressure ( in mb ) Visibility ( mi km ) Precip ( " mm )
12:53 am 00:53 Mostly Cloudy with Mist and Fog 66 18.9 66 18.9 100 100 N N/A 29.94 1014 5 8 N/A
1:37 am 01:37 Mostly Cloudy with Nearby Thunderstorms 66 18.9 66 18.9 100 100 WSW 5 7 29.91 1013 6 10 N/A
1:53 am 01:53 Mostly Clear with Nearby Thunderstorms 69 20.6 68 20 96 96 WSW 8 13 29.92 1013 8 13 N/A
2:09 am 02:09 Mostly Clear 71 21.7 68 20 90 90 WNW 5 7 29.91 1013 9 14 N/A
2:53 am 02:53 Partly Cloudy 67 19.4 67 19.4 100 100 ESE 3 6 29.91 1013 7 11 N/A
3:53 am 03:53 Clear with Mist and Fog 66 18.9 66 18.9 100 100 ESE 3 6 29.91 1013 6 10 N/A
4:53 am 04:53 Clear with Mist and Fog 64 17.8 64 17.8 100 100 NNE 3 6 29.92 1013 3 5 N/A
5:20 am 05:20 Clear with Mist and Fog 64 17.8 64 17.8 100 100 N N/A 29.91 1013 2 3 N/A
5:27 am 05:27 Mostly Cloudy with Mist and Fog 64 17.8 64 17.8 100 100 N N/A 29.91 1013 1 1 N/A
5:45 am 05:45 Mostly Clear with Mist and Fog 63 17.2 63 17.2 100 100 ENE 3 6 29.91 1013 2 2 N/A
5:47 am 05:47 Mostly Clear with Mist and Fog 63 17 63 17 100 100 NE 3 6 29.91 1013 3 5 N/A
5:53 am 05:53 Mostly Clear with Mist and Fog 63 17.2 63 17.2 100 100 N 3 6 29.91 1013 5 8 N/A
6:53 am 06:53 Partly Cloudy with Patchy Fog 63 17.2 63 17.2 100 100 NNE 3 6 29.91 1013 5 8 N/A
7:53 am 07:53 Sunny with Mist and Fog 64 17.8 64 17.8 100 100 N N/A 29.92 1013 5 8 N/A
8:53 am 08:53 Partly Cloudy with Mist and Fog 68 20 67 19.4 96 96 W 3 6 29.92 1013 6 10 N/A
9:53 am 09:53 Mostly Cloudy 76 24.4 69 20.6 79 79 S 14 22 29.90 1013 10 16 N/A
10:53 am 10:53 Mostly Cloudy 77 25 68 20 74 74 SSW 22 35 29.91 1013 10 16 N/A
11:53 am 11:53 Mostly Sunny 78 25.6 66 18.9 67 67 SSW 21 33 29.92 1013 10 16 N/A
12:53 pm 12:53 Mostly Cloudy 77 25 68 20 74 74 S 8 13 29.92 1013 10 16 N/A
1:53 pm 13:53 Mostly Cloudy 80 26.7 69 20.6 69 69 SSW 13 20 29.88 1012 10 16 N/A
2:53 pm 14:53 Mostly Sunny 81 27.2 69 20.6 67 67 SSW 21 33 29.87 1011 10 16 N/A
3:53 pm 15:53 Mostly Sunny 80 26.7 68 20 67 67 S 21 33 29.83 1010 10 16 N/A
4:53 pm 16:53 Mostly Sunny 81 27.2 67 19.4 62 62 S 14 22 29.80 1009 10 16 N/A
5:53 pm 17:53 Mostly Cloudy 80 26.7 67 19.4 64 64 S 9 15 29.79 1009 10 16 N/A
6:53 pm 18:53 Mostly Sunny 79 26.1 66 18.9 65 65 S 10 17 29.79 1009 10 16 N/A
7:53 pm 19:53 Partly Cloudy 80 26.7 62 16.7 54 54 S 14 22 29.78 1008 10 16 N/A
8:08 pm 20:08 Mostly Cloudy 79 26 63 17 58 58 S 20 31 29.80 1009 10 16 N/A
8:53 pm 20:53 Mostly Cloudy with Rain 72 22.2 66 18.9 82 82 SSE 17 28 29.81 1010 7 11 0.02 0.51
9:53 pm 21:53 Mostly Cloudy with Light Rain 69 20.6 65 18.3 87 87 SSE 21 33 29.77 1008 10 16 0.02 0.51
10:53 pm 22:53 Mostly Cloudy 69 20.6 65 18.3 87 87 SSE 12 19 29.74 1007 10 16 N/A
11:53 pm 23:53 Partly Cloudy 70 21.1 64 17.8 82 82 S 9 15 29.73 1007 10 16 N/A

Powered by AerisWeather